Погода в Тюкалинске

Погода в Тюкалинске : погода сейчас, прогноз погоды и архив. Всё, что Вы хотите узнать о погоде в Тюкалинске!

Хотите узнать прогноз погоды в Тюкалинске? Тогда Вам сюда: Погода в Тюкалинске

Поиск расширенной информации на нашем сайте:

Другие новости

Новости СМИ2

Главная страница сайта

Новости сайта

03.07.2017

Напоминаем, что на нашем специализированном сайте Метеоцентр.Азия вы можете получить высокодетализированные автоматические прогнозы погоды по пунктам России, СНГ и мира в авиационном формате (включающие направление и скорость ветра, видимость, явления погоды, количество и форму облачности, нижнюю и верхнюю границу облачности).


Погода в Тюкалинске - сегодня

Время (UTC), дата Ветер
(°,м/с) 
Видим.   Явления Облачность Т
(°С)
Тd
(°С)
f(%) Тe
(°С)
Pmin
(гПа)
dP
(гПа)
Po
(мм)
O2
(г/м3)
Тmin Tmax R s Состояние
почвы
15 16.05.18 010 (С) 4{12}  20000 м    8/0 средняя, верхняя 
[Ac lent|Ci fib]
+0.6 -7.8 53 -2  1017.9  1.4  752  303    +5.6  0.0     
18 16.05.18 340 (С) 10 км    3/0 верхняя 
[Ci fib]
-2.1 -8 64 -3  1019.3  1.2  753  307           
21 16.05.18 320 (СЗ) 10 км    ясно 
-3.4 -7.7 72 -5  1019.5  0.2  753  308           
00 17.05.18 320 (СЗ) 20000 м    3/0 верхняя 
[Ci sp]
-3.5 -7.6 73 -3  1020.7  1.1  754  309           
03 17.05.18 320 (СЗ) 20000 м    9/9 600 м 
[Sc]
+0.4 -9.9 46 -1  1020.7  0.7  755  305  -4.2        мокрая 
06 17.05.18 310 (СЗ) 20000 м    8/8 1000 м 
[Cu hum]
+3.3 -9.3 39 +1  1020.1  -0.5  754  301           
09 17.05.18 260 (З) 20000 м    6/6 1000 м 
[Cu hum]
+6.7 -8 34 +6  1018.5  -1.3  753  297           
12 17.05.18 240 (ЮЗ) 20000 м    10/5 1000 м верхняя 
[Cu hum|Ci fib]
+8.5 -7.5 31 +7  1016.6  -1.9  752  295           
15 17.05.18 200 (Ю) 20000 м    9/0 средняя 
[Ac lent]
+7 -6.1 39 +6  1015  -1.5  751  296    +8.6       
18 17.05.18 180 (Ю) 10 км    8/0 средняя 
[Ac lent]
+6 -5.2 44 +4  1013  -2  749  296           
21 17.05.18 220 (ЮЗ) 10 км    10/0 средняя 
[As op]
+6.2 -3.6 49 +5  1010.5  -2.5  747  295           
00 18.05.18 220 (ЮЗ) 20000 м    9/0 средняя 
[Ac As]
+7.3 -3.3 47 +6  1006.6  -3.8  744  292           
03 18.05.18 250 (З) 5{11}  20000 м    10/0 средняя 
[As op]
+9.9 -1.1 46 +9  1004.4  -2  743  289  +5.8        влажная 
15 18.05.18 340 (С) 8-12{16}  20000 м    8/8 600 м 
[Sc diur, vesp]
+1.8 -8.6 46 -2  1017.6  2.6  752  302    +10.9  0.6     
21 18.05.18 330 (СЗ) 6-10{10}  10 км    ясно 
-0.8 -8.4 56 -4  1022.2  1.7  756  306           
00 19.05.18 330 (СЗ) 4{10}  20000 м    ясно 
-1.7 -9 57 -4  1024.6  2.4  757  308           
03 19.05.18 300 (СЗ) 20000 м    3/0 верхняя 
[Ci fib]
+1.3 -9.4 45 -1  1026.3  1.8  759  305  -2.1        влажная 
06 19.05.18 310 (СЗ) 20000 м    3/0 верхняя 
[Ci sp]
+5.8 -11.4 28 +4  1026.9  0.8  759  301           
09 19.05.18 320 (СЗ) 20000 м    3/0 верхняя 
[Ci fib]
+9.5 -12.7 19 +9  1026.5  -0.2  759  297           
12 19.05.18 250 (З) 20000 м    1/0 верхняя 
[Ci fib]
+11.7 -10.2 21 +11  1025.5  -0.8  759  294           
15 19.05.18 200 (Ю) 20000 м    3/0 верхняя 
[Ci fib]
+9 -8.1 29 +10  1025.3  -0.4  758  297    +11.9       
18 19.05.18 160 (Ю) 10 км    ясно 
+5.9 -7.8 37 +5  1024.8  -0.6  758  300           
21 19.05.18 190 (Ю) 10 км    10/0 средняя 
[Ac lent]
+5.9 -6.4 41 +6  1024.2  -0.6  757  299           
00 20.05.18 160 (Ю) 20000 м  в посл. час дождь  10/10 600 м 
[Sc]
+4.5 +1.2 79 +3  1022.9  -1.4  756  300           
03 20.05.18 150 (ЮВ) 4000 м  слаб. дождь  10/10 600 м 
[Sc]
+8.1 +1.6 64 +7  1020  -2.6  754  295  +4      влажная 
Время (UTC), дата Ветер
(°,м/с) 
Видим.   Явления Облачность Т
(°С)
Тd
(°С)
f(%) Тe
(°С)
Pmin
(гПа)
dP
(гПа)
Po
(мм)
O2
(г/м3)
Тmin Tmax R s Состояние
почвы

Для получения пояснительной информации подведите курсор к названию столбца.

ПОГОДА в Тюкалинске - архив

Всё, что Вы хотите узнать о погоде в Тюкалинске - удобно и подробно!

Выберите нужную дату (начиная с 1 января 2015* года) и нажмите кнопку "Найти".
Будут отображены архивные сводки погоды по пункту Тюкалинск, начиная с указанной даты.


Отображать данные в формате CSV (для использования в таблицах Excel)


Внимание! Наш архив погоды предназначен исключительно для личного некоммерческого использования в познавательных целях. Если Вам необходимы официальные справки о состоянии погоды (для производственных, юридических, коммерческих и т.п. целей), обращайтесь в органы Росгидромета.

*Примечание: данная дата относится к архиву по метеостанциям СССР (Россия, СНГ, Балтия).
Архив по метеостанциям Зарубежной Европы и Азии (кроме Китая) хранится 10 дней, по другим регионам земного шара (Китай, Африка, Америка, Австралия, Океания) - 1 день.

Тюкалинск - район местоположения метеостанции


Название, широта, долгота, высота метеостанции:
Тюкалинск 55.9°ш. 72.2°д. 118 м над ур. моря [Российская Федерация]

Дополнительная информация

В oтличие oт бoльшинства пoгoдных сайтoв мы публикуем пoдрoбную метеoинфoрмацию в детальнoм прoфессиoнальнoм фoрмате.

Характеристики температуры и влажнoсти вoздуха измеряются на высoте 2 м в тени вдали oт зданий и деревьев.
Скoрoсть ветра измеряется на высoте 10 м (на урoвне рoста челoвека скoрoсть ветра ниже в 1.5-2 раза). Если метеoстанция нахoдится в гoрoде или в лесу, тo скoрoсть ветра занижена на 2-4 м/с пo сравнению с oткрытым местoм. Скoрoсть ветра над акватoриями крупных рек и oзёр, а также на вершинах хoлмoв на 2-5 м/с выше, чем в oбычных услoвиях.
Атмoсфернoе давление в разных тoчках местнoсти мoжет значительнo oтличаться oт давления на метеoстанции, в зависимoсти oт услoвий рельефа (при пoдъёме на 10 м давление пoнижается примернo на 1 мм рт.ст.).